Torna al catalogo

DELTA 1 DEB

AttivoLEO
NORAD 7183·DEBRIS·🇺🇸 United States

Lanciato Nov 6, 1973 da Vandenberg Space Force Base

Loading…

Prossimi Passaggi (prossime 24 ore)

TLE

AggiornatoSource: Space-Track

Epoca: Sep 14, 2026, 13:58 UTC

1 07183U 73086EU  26257.58232199  .00000146  00000-0  95335-3 0  9993
2 07183 102.3858 296.5526 0125883  90.4320  75.2924 12.70208824436015

Traccia DELTA 1 DEB in tempo reale con AllMySat

Download on the App Store